N4HAC Weather Reports


time (UTC)temp
F
wind
direction
speed
knots
gust
knots
rain 1hr
in
rain 24hr
in
rain mn
in
humidity
%
barometer
mb
20260507201438 62 135 8.7 13.0 0.00 0.00 0.00 62 1003.4
20260507200936 62 135 9.6 13.9 0.00 0.00 0.00 62 1003.2
20260507200431 62 153 7.0 16.5 0.00 0.00 0.00 64 1003.2
20260507195927 63 54 6.1 9.6 0.00 0.00 0.00 62 1003.2
20260507195425 63 134 9.6 9.6 0.00 0.00 0.00 62 1003.4
20260507194922 62 130 6.1 13.0 0.00 0.00 0.00 61 1003.3
20260507194418 61 141 1.7 7.8 0.00 0.00 0.00 64 1003.5
20260507193915 62 129 9.6 14.8 0.00 0.00 0.00 61 1003.5
20260507193412 63 70 4.3 13.0 0.00 0.00 0.00 61 1003.8
20260507192908 64 58 3.5 10.4 0.00 0.00 0.00 59 1003.8
20260507192404 63 159 7.0 8.7 0.00 0.00 0.00 52 1003.6
20260507191901 64 140 9.6 11.3 0.00 0.00 0.00 58 1003.4
20260507191357 63 115 4.3 7.0 0.00 0.00 0.00 56 1003.7
20260507190854 62 56 5.2 7.0 0.00 0.00 0.00 53 1003.6
20260507190352 62 56 3.5 7.0 0.00 0.00 0.00 50 1003.7
20260507185851 62 47 7.0 7.8 0.00 0.00 0.00 51 1003.8
20260507185348 62 22 5.2 9.6 0.00 0.00 0.00 48 1003.7
20260507184845 62 81 1.7 7.0 0.00 0.00 0.00 52 1003.9
20260507184343 62 59 4.3 8.7 0.00 0.00 0.00 49 1003.9
20260507183839 63 35 7.0 11.3 0.00 0.00 0.00 51 1003.8
20260507183336 66 51 7.0 13.0 0.00 0.00 0.00 50 1003.9
20260507182834 64 191 4.3 8.7 0.00 0.00 0.00 52 1003.9
20260507182329 66 181 2.6 5.2 0.00 0.00 0.00 53 1004.1
20260507181826 64 162 7.8 9.6 0.00 0.00 0.00 45 1004.4
20260507181322 64 174 2.6 4.3 0.00 0.00 0.00 50 1004.1
20260507180819 63 186 1.7 13.0 0.00 0.00 0.00 48 1004.1
20260507180316 64 230 6.1 7.8 0.00 0.00 0.00 54 1004.0
20260507175811 63 166 7.8 7.8 0.00 0.00 0.00 48 1004.3
20260507175308 62 192 7.0 13.0 0.00 0.00 0.00 55 1004.3
20260507174806 63 194 12.2 13.0 0.00 0.00 0.00 47 1004.3
20260507174304 63 54 5.2 7.8 0.00 0.00 0.00 48 1004.4
20260507173801 63 193 7.0 9.6 0.00 0.00 0.00 48 1004.7
20260507173258 63 307 0.9 2.6 0.00 0.00 0.00 53 1004.8
20260507172754 61 239 7.0 13.9 0.00 0.00 0.00 49 1004.8
20260507172251 62 205 2.6 3.5 0.00 0.00 0.00 47 1004.5
20260507171746 61 266 7.0 7.8 0.00 0.00 0.00 51 1005.0
20260507171244 61 217 14.8 15.6 0.00 0.00 0.00 51 1004.8
20260507170741 62 216 7.8 12.2 0.00 0.00 0.00 48 1004.9
20260507170237 63 171 3.5 8.7 0.00 0.00 0.00 56 1005.3
20260507165733 62 328 5.2 7.8 0.00 0.00 0.00 48 1005.3
20260507165229 62 157 2.6 7.8 0.00 0.00 0.00 47 1005.4
20260507164726 63 222 7.8 8.7 0.00 0.00 0.00 47 1005.6
20260507164223 61 302 1.7 5.2 0.00 0.00 0.00 59 1005.6
20260507163720 60 191 2.6 9.6 0.00 0.00 0.00 52 1005.8
20260507163218 60 328 3.5 12.2 0.00 0.00 0.00 51 1006.0
20260507162713 60 110 0.0 4.3 0.00 0.00 0.00 54 1005.9
20260507162210 59 53 4.3 10.4 0.00 0.00 0.00 51 1006.0
20260507161706 60 19 5.2 7.8 0.00 0.00 0.00 59 1006.0
20260507161203 59 28 4.3 10.4 0.00 0.00 0.00 53 1006.1
20260507160659 58 173 2.6 4.3 0.00 0.00 0.00 54 1006.2
20260507160156 58 248 5.2 7.0 0.00 0.00 0.00 54 1006.2
20260507155651 58 310 5.2 8.7 0.00 0.00 0.00 51 1006.4
20260507155148 59 38 0.0 3.5 0.00 0.00 0.00 53 1006.4
20260507154644 58 303 2.6 4.3 0.00 0.00 0.00 56 1006.2
20260507154142 57 339 4.3 8.7 0.00 0.00 0.00 53 1006.2
20260507153638 57 23 2.6 8.7 0.00 0.00 0.00 51 1006.3
20260507153135 56 28 4.3 4.3 0.00 0.00 0.00 53 1006.7
20260507152631 56 349 3.5 8.7 0.00 0.00 0.00 55 1006.4
20260507152127 56 355 3.5 5.2 0.00 0.00 0.00 55 1006.7
20260507151623 56 350 4.3 9.6 0.00 0.00 0.00 55 1006.6
20260507151121 56 294 4.3 4.3 0.00 0.00 0.00 61 1006.8
20260507150618 56 280 6.1 7.8 0.00 0.00 0.00 57 1006.8
20260507150115 56 317 4.3 7.0 0.00 0.00 0.00 55 1006.9
20260507145615 56 279 1.7 4.3 0.00 0.00 0.00 57 1007.0
20260507145113 56 10 6.1 7.8 0.00 0.00 0.00 60 1007.1
20260507144614 55 333 4.3 7.0 0.00 0.00 0.00 56 1007.2
20260507144113 55 286 3.5 6.1 0.00 0.00 0.00 56 1007.3
20260507143608 55 340 3.5 5.2 0.00 0.00 0.00 54 1007.3
20260507143106 55 3 1.7 4.3 0.00 0.00 0.00 57 1007.3
20260507142601 54 273 1.7 7.8 0.00 0.00 0.00 55 1007.4
20260507142058 54 10 1.7 7.8 0.00 0.00 0.00 57 1007.4
20260507141554 54 357 5.2 7.8 0.00 0.00 0.00 57 1007.5
20260507141051 55 329 2.6 5.2 0.00 0.00 0.00 57 1007.4
20260507140548 54 354 6.1 8.7 0.00 0.00 0.00 56 1007.3
20260507140045 54 345 6.1 9.6 0.00 0.00 0.00 56 1007.4
20260507135542 54 328 7.8 10.4 0.00 0.00 0.00 57 1007.4
20260507135040 54 285 3.5 7.8 0.00 0.00 0.00 60 1007.6
20260507134536 54 317 7.8 9.6 0.00 0.00 0.00 57 1007.7
20260507134032 54 2 6.1 8.7 0.00 0.00 0.00 59 1007.6
20260507133528 54 355 5.2 7.8 0.00 0.00 0.00 61 1007.8
20260507133026 54 245 3.5 5.2 0.00 0.00 0.00 63 1008.0
20260507132522 53 334 3.5 5.2 0.00 0.00 0.00 63 1007.9
20260507132019 53 355 7.8 8.7 0.00 0.00 0.00 62 1007.9
20260507131516 53 350 5.2 5.2 0.00 0.00 0.00 63 1007.9
20260507131013 53 319 2.6 4.3 0.00 0.00 0.00 68 1007.9
20260507130510 53 296 7.8 13.0 0.00 0.00 0.00 65 1007.9
20260507130008 53 342 1.7 6.1 0.00 0.00 0.00 72 1007.7
20260507125506 53 308 4.3 9.6 0.00 0.00 0.00 69 1007.6
20260507125003 53 299 6.1 8.7 0.00 0.00 0.00 70 1007.6
20260507124459 53 336 7.8 10.4 0.00 0.00 0.00 70 1007.6
20260507123958 53 321 5.2 7.0 0.00 0.00 0.00 70 1007.7
20260507123455 53 348 7.0 7.8 0.00 0.00 0.00 71 1007.6
20260507122951 53 305 7.0 8.7 0.00 0.00 0.00 71 1007.8
20260507122447 53 337 6.1 9.6 0.00 0.00 0.00 71 1007.7
20260507121943 53 329 7.8 7.8 0.00 0.00 0.00 72 1007.6
20260507121438 53 343 5.2 8.7 0.00 0.00 0.00 71 1007.4
20260507120935 53 358 7.0 7.8 0.00 0.00 0.00 72 1007.6
20260507120432 53 356 7.0 12.2 0.00 0.00 0.00 73 1007.3
20260507115928 53 4 7.8 10.4 0.00 0.00 0.00 73 1007.6
20260507115424 53 348 7.8 8.7 0.00 0.00 0.00 75 1007.5
20260507114920 53 339 7.8 11.3 0.00 0.00 0.00 73 1007.5
20260507114417 53 350 6.1 10.4 0.00 0.00 0.00 76 1007.3
20260507113914 53 338 7.0 8.7 0.00 0.00 0.00 76 1007.4
20260507113411 53 320 4.3 7.8 0.00 0.00 0.00 78 1007.3
20260507112908 53 328 5.2 9.6 0.00 0.00 0.00 78 1007.3
20260507112406 53 317 3.5 6.1 0.00 0.00 0.00 80 1007.0
20260507111904 53 328 5.2 8.7 0.00 0.00 0.00 81 1006.8
20260507111400 53 348 4.3 7.0 0.00 0.00 0.00 81 1007.1
20260507110856 53 305 4.3 7.8 0.00 0.00 0.00 80 1007.1
20260507110352 53 294 3.5 7.0 0.00 0.00 0.00 79 1006.7
20260507105849 53 318 1.7 5.2 0.00 0.00 0.00 79 1006.8
20260507105346 53 343 2.6 3.5 0.00 0.00 0.00 80 1006.8
20260507104843 53 295 1.7 7.0 0.00 0.00 0.00 81 1006.7
20260507104339 53 279 6.1 7.0 0.00 0.00 0.00 82 1006.7
20260507103835 53 72 0.9 5.2 0.00 0.00 0.00 83 1006.8
20260507103332 54 280 1.7 5.2 0.00 0.00 0.00 82 1006.7
20260507102828 54 288 2.6 4.3 0.00 0.00 0.00 82 1006.5
20260507102325 54 256 3.5 5.2 0.00 0.00 0.00 82 1006.6
20260507101821 54 267 3.5 5.2 0.00 0.00 0.00 81 1006.8
20260507101316 54 257 3.5 5.2 0.00 0.00 0.00 81 1006.5
20260507100813 54 299 3.5 7.0 0.00 0.00 0.00 81 1006.5
20260507100311 54 281 4.3 6.1 0.00 0.00 0.00 80 1006.8
20260507095809 54 287 5.2 6.1 0.00 0.00 0.00 80 1006.5
20260507095306 54 310 2.6 3.5 0.00 0.00 0.00 80 1006.4
20260507094802 54 315 2.6 4.3 0.00 0.00 0.00 80 1006.4
20260507094259 54 332 0.9 3.5 0.00 0.00 0.00 80 1006.3
20260507093756 54 344 4.3 4.3 0.00 0.00 0.00 80 1006.4
20260507093255 54 317 1.7 5.2 0.00 0.00 0.00 80 1006.5
20260507092752 54 8 3.5 5.2 0.00 0.00 0.00 80 1006.4
20260507092248 54 337 4.3 6.1 0.00 0.00 0.00 79 1006.4
20260507091745 54 323 3.5 6.1 0.00 0.00 0.00 81 1006.4
20260507091241 54 334 5.2 6.1 0.00 0.00 0.00 80 1006.2
20260507090736 54 298 4.3 4.3 0.00 0.00 0.00 81 1006.4
20260507090233 54 316 1.7 5.2 0.00 0.00 0.00 80 1005.9
20260507085731 54 2 3.5 7.8 0.00 0.00 0.00 79 1005.6
20260507085227 54 348 4.3 12.2 0.00 0.00 0.00 80 1005.8
20260507084725 54 256 1.7 4.3 0.00 0.00 0.00 81 1006.1
20260507084221 54 326 1.7 4.3 0.00 0.00 0.00 81 1005.9
20260507083719 54 254 0.0 2.6 0.00 0.00 0.00 83 1006.2
20260507083215 54 260 1.7 2.6 0.00 0.00 0.00 84 1006.3
20260507082711 54 235 2.6 5.2 0.00 0.00 0.00 84 1006.3
20260507082207 54 244 3.5 5.2 0.00 0.00 0.00 83 1006.2
20260507081704 54 288 0.9 2.6 0.00 0.00 0.00 83 1006.0
20260507081200 54 264 1.7 3.5 0.00 0.00 0.00 82 1006.0
20260507080657 54 300 1.7 5.2 0.00 0.00 0.00 82 1006.0
20260507080153 54 321 1.7 2.6 0.00 0.00 0.00 82 1005.9
20260507075648 54 288 2.6 3.5 0.00 0.00 0.00 82 1006.2
20260507075145 54 232 0.9 4.3 0.00 0.00 0.00 82 1005.9
20260507074641 54 265 5.2 10.4 0.00 0.00 0.00 81 1005.8
20260507074140 54 293 3.5 6.1 0.00 0.00 0.00 82 1005.7
20260507073636 54 277 6.1 8.7 0.00 0.00 0.00 82 1005.5
20260507073132 54 311 4.3 8.7 0.00 0.00 0.00 82 1005.5
20260507072630 54 273 6.1 7.0 0.00 0.00 0.00 82 1005.5
20260507072127 54 302 3.5 6.1 0.00 0.00 0.00 83 1005.8
20260507071625 54 235 3.5 5.2 0.00 0.00 0.00 83 1005.6
20260507071121 54 257 4.3 7.8 0.00 0.00 0.00 83 1005.5
20260507070618 54 289 4.3 4.3 0.00 0.00 0.00 84 1005.4
20260507070115 54 295 4.3 5.2 0.00 0.00 0.00 83 1005.5
20260507065611 54 265 3.5 5.2 0.00 0.00 0.00 84 1005.7
20260507065108 54 271 2.6 8.7 0.00 0.00 0.00 84 1005.6
20260507064606 54 198 2.6 5.2 0.00 0.00 0.00 85 1005.7
20260507064104 54 249 3.5 6.1 0.00 0.00 0.00 85 1005.7
20260507063601 54 307 3.5 4.3 0.00 0.00 0.00 86 1005.4
20260507063059 54 267 5.2 7.8 0.00 0.00 0.00 86 1005.5
20260507062555 53 284 6.1 6.1 0.00 0.00 0.00 88 1005.7
20260507062053 54 334 2.6 5.2 0.00 0.00 0.00 88 1005.8
20260507061550 54 288 6.1 8.7 0.00 0.00 0.00 87 1006.0
20260507061048 55 318 3.5 4.3 0.00 0.00 0.00 86 1005.7
20260507060546 55 259 3.5 5.2 0.00 0.00 0.00 85 1006.2
20260507060042 55 261 4.3 6.1 0.00 0.00 0.00 85 1006.3
20260507055542 55 233 5.2 9.6 0.00 0.00 0.00 83 1005.9
20260507055039 55 290 6.1 8.7 0.00 0.00 0.00 84 1005.6
20260507054535 56 266 3.5 6.1 0.00 0.00 0.00 85 1005.5
20260507054032 56 263 2.6 7.0 0.00 0.00 0.00 85 1005.6
20260507053530 56 248 2.6 6.1 0.00 0.00 0.00 86 1005.8
20260507053029 56 311 4.3 8.7 0.00 0.00 0.00 86 1005.6
20260507052526 56 275 6.1 7.8 0.02 0.00 0.00 87 1005.7
20260507052022 56 332 1.7 7.8 0.02 0.00 0.00 88 1005.7
20260507051520 56 309 7.0 10.4 0.00 0.00 0.00 88 1005.8
20260507051017 56 308 5.2 11.3 0.00 0.00 0.00 88 1005.6
20260507050513 56 298 3.5 4.3 0.00 0.00 0.00 88 1005.6
20260507050010 57 284 2.6 4.3 0.00 0.00 0.00 86 1005.6
20260507045507 57 268 5.2 10.4 0.00 0.00 0.00 87 1005.7
20260507045004 56 258 4.3 6.1 0.00 0.00 0.00 88 1005.5
20260507044501 57 247 5.2 5.2 0.00 0.00 0.00 89 1005.4
20260507043957 57 44 5.2 6.1 0.00 0.00 0.00 87 1004.5
20260507043453 57 322 2.6 7.0 0.00 0.00 0.00 88 1005.0
20260507042950 57 289 2.6 7.0 0.00 0.00 0.00 88 1005.2
20260507042446 57 300 5.2 7.8 0.00 0.00 0.00 88 1005.5
20260507041942 57 326 6.1 6.1 0.00 0.00 0.00 88 1005.1
20260507041439 57 290 1.7 2.6 0.00 0.00 0.00 88 1005.4
20260507040936 58 182 0.9 3.5 0.00 0.00 0.00 88 1005.1
20260507040432 58 331 0.0 5.2 0.00 0.00 0.00 86 1005.3
20260507035928 58 227 3.5 6.1 0.00 0.28 0.28 87 1005.5
20260507035425 58 250 1.7 3.5 0.00 0.28 0.28 89 1005.7
20260507034921 58 292 2.6 7.8 0.00 0.28 0.28 88 1005.7
20260507034418 58 232 4.3 4.3 0.00 0.28 0.28 88 1005.8
20260507033916 58 243 6.1 7.8 0.00 0.28 0.28 88 1005.9
20260507033414 58 232 3.5 5.2 0.00 0.28 0.28 88 1005.2
20260507032911 58 204 1.7 3.5 0.00 0.28 0.28 88 1005.0
20260507032408 58 302 1.7 4.3 0.00 0.28 0.28 88 1004.8
20260507031904 58 286 3.5 3.5 0.00 0.28 0.28 88 1005.1
20260507031400 59 286 1.7 3.5 0.00 0.28 0.28 89 1005.3
20260507030857 59 257 3.5 4.3 0.00 0.28 0.28 89 1005.3
20260507030354 59 245 3.5 7.0 0.00 0.28 0.28 89 1005.1
20260507025851 58 300 4.3 10.4 0.00 0.28 0.28 92 1004.7
20260507025349 59 231 1.7 2.6 0.00 0.28 0.28 95 1005.0
20260507024846 59 252 1.7 4.3 0.00 0.28 0.28 94 1005.3
20260507024343 59 258 4.3 6.1 0.00 0.28 0.28 94 1005.1
20260507023839 59 345 1.7 6.1 0.00 0.28 0.28 94 1004.7
20260507023336 59 223 4.3 5.2 0.05 0.28 0.28 93 1004.6
20260507022834 60 267 2.6 4.3 0.09 0.28 0.28 91 1004.7
20260507022330 60 4 7.0 7.0 0.05 0.27 0.27 89 1004.7
20260507021826 61 228 7.8 9.6 0.00 0.26 0.26 86 1004.5
20260507021321 61 313 3.5 5.2 0.00 0.26 0.26 89 1004.5
20260507020820 61 232 1.7 4.3 0.00 0.26 0.26 94 1004.7
20260507020316 61 349 1.7 3.5 0.00 0.26 0.26 94 1004.6
20260507015813 61 300 1.7 4.3 0.00 0.26 0.26 95 1004.5
20260507015311 61 265 2.6 2.6 0.00 0.26 0.26 96 1004.5
20260507014808 61 306 0.9 1.7 0.00 0.26 0.26 97 1004.3
20260507014304 62 349 1.7 2.6 0.00 0.26 0.26 97 1004.1
20260507013800 62 325 0.0 1.7 0.00 0.26 0.26 96 1004.1
20260507013258 62 327 0.9 1.7 0.00 0.26 0.26 95 1004.3
20260507012755 62 40 1.7 3.5 0.00 0.26 0.26 93 1003.9
20260507012250 62 238 0.0 2.6 0.00 0.26 0.26 92 1004.4
20260507011748 62 316 0.9 2.6 0.00 0.26 0.26 92 1004.2
20260507011245 62 287 1.7 3.5 0.00 0.26 0.26 92 1004.3
20260507010744 63 298 0.0 2.6 0.00 0.26 0.26 92 1004.4
20260507010240 63 278 2.6 4.3 0.00 0.26 0.26 92 1004.6
20260507005738 63 283 2.6 4.3 0.00 0.26 0.26 92 1004.5
20260507005234 63 0 5.2 6.1 0.00 0.26 0.26 93 1004.3
20260507004731 63 349 2.6 5.2 0.00 0.26 0.26 94 1004.4
20260507004229 63 331 1.7 5.2 0.00 0.26 0.26 96 1004.6
20260507003725 63 304 4.3 6.1 0.00 0.26 0.26 98 1004.4
20260507003220 64 226 2.6 3.5 0.00 0.26 0.26 98 1004.2
20260507002716 64 302 1.7 2.6 0.00 0.26 0.26 98 1004.1
20260507002213 64 272 3.5 4.3 0.00 0.26 0.26 98 1004.1
20260507001709 64 273 1.7 4.3 0.00 0.26 0.26 99 1004.2
20260507001207 64 312 2.6 5.2 0.00 0.26 0.26 99 1004.0
20260507000703 64 23 4.3 5.2 0.00 0.26 0.26 99 1003.7
20260507000159 64 323 1.7 2.6 0.02 0.26 0.26 99 1004.0
20260506235656 64 289 2.6 4.3 0.02 0.26 0.26 99 1004.1
20260506235151 64 186 1.7 2.6 0.02 0.26 0.26 99 1004.1
20260506234648 64 298 0.0 1.7 0.05 0.26 0.26 99 1003.6
20260506234145 64 297 0.9 2.6 0.02 0.26 0.26 99 1003.4
20260506233642 64 280 0.9 1.7 0.00 0.25 0.25 99 1003.4
20260506233139 64 264 1.7 1.7 0.00 0.25 0.25 99 1003.4
20260506232636 65 351 1.7 1.7 0.07 0.25 0.25 98 1003.3
20260506232131 65 28 1.7 3.5 0.17 0.25 0.25 97 1003.3
20260506231628 65 197 1.7 4.3 0.09 0.24 0.24 97 1003.7
20260506231127 65 292 1.7 4.3 0.19 0.22 0.22 95 1003.0
20260506230623 66 292 1.7 5.2 0.50 0.22 0.22 93 1003.2
20260506230120 67 245 3.5 3.5 0.12 0.16 0.16 89 1003.2
20260506225617 68 236 2.6 3.5 0.00 0.14 0.14 86 1003.2
20260506225113 68 201 1.7 2.6 0.00 0.14 0.14 86 1002.9
20260506224610 68 173 0.0 1.7 0.00 0.14 0.14 86 1002.7
20260506224107 68 150 2.6 3.5 0.00 0.14 0.14 87 1003.1
20260506223603 68 134 3.5 6.1 0.00 0.14 0.14 86 1002.7
20260506223059 68 129 1.7 3.5 0.00 0.14 0.14 86 1002.6
20260506222556 68 152 3.5 5.2 0.00 0.14 0.14 86 1003.0
20260506222052 68 138 4.3 6.1 0.00 0.14 0.14 86 1002.8
20260506221550 68 136 5.2 10.4 0.00 0.14 0.14 85 1002.9
20260506221048 68 138 4.3 7.8 0.00 0.14 0.14 85 1002.8
20260506220544 69 128 4.3 6.1 0.00 0.14 0.14 85 1002.8
20260506220039 68 172 4.3 6.1 0.00 0.14 0.14 85 1002.8
20260506215536 68 124 1.7 5.2 0.00 0.14 0.14 85 1002.7
20260506215032 68 154 6.1 9.6 0.00 0.14 0.14 85 1002.8
20260506214529 68 122 5.2 5.2 0.00 0.14 0.14 85 1002.5
20260506214026 68 148 3.5 7.0 0.00 0.14 0.14 85 1002.6
20260506213525 68 154 6.1 10.4 0.00 0.14 0.14 85 1002.6
20260506213021 68 143 7.8 11.3 0.00 0.14 0.14 85 1002.6
20260506212518 68 111 4.3 9.6 0.00 0.14 0.14 85 1002.6
20260506212013 68 131 9.6 13.9 0.00 0.14 0.14 84 1002.7
20260506211509 69 133 8.7 11.3 0.00 0.14 0.14 84 1002.5
20260506211007 69 136 6.1 7.8 0.00 0.14 0.14 84 1002.7
20260506210502 68 136 5.2 8.7 0.00 0.14 0.14 84 1002.7
20260506205959 68 153 9.6 11.3 0.00 0.14 0.14 85 1002.2
20260506205456 68 155 7.8 9.6 0.00 0.14 0.14 85 1002.5
20260506204952 68 141 7.0 13.0 0.00 0.14 0.14 85 1002.3
20260506204450 68 120 4.3 11.3 0.00 0.14 0.14 85 1002.5
20260506203947 68 138 7.8 10.4 0.00 0.14 0.14 84 1002.3
20260506203444 68 170 4.3 7.8 0.00 0.14 0.14 85 1002.7
20260506202941 68 166 7.0 11.3 0.00 0.14 0.14 84 1002.1
20260506202438 68 143 4.3 10.4 0.00 0.14 0.14 85 1002.3
20260506201934 68 140 8.7 9.6 0.00 0.14 0.14 84 1001.9